Flag for Greece Weather past 2 weeks in Corfu, Greece

Now
79 °F

Sunny.


Feels Like: 81 °F
Forecast: 72 / 87 °F
Wind: 3 mph from South

Location: Kerkyra Airport

Current Time: Jul 26, 2014 at 10:47:15 AM

Latest Report: Jul 26, 2014 at 9:50 AM


Visibility: 10 mi

Pressure: 29.86 "Hg

Humidity: 70%

Dew point: 68 °F

Location of CorfuLocation

Historic Weather in Corfu — Graph

°F

Corfu temperature yesterday

Maximum temperature yesterday: 90 °F (at 4:50 PM)
Minimum temperature yesterday: 70 °F (at 5:50 AM)
Average temperature yesterday: 79 °F

Past Weeks' High & Low Weather Summary

 TemperatureHumidityPressure
High91 °F (Jul 20, 3:20 PM)94% (Jul 13, 7:50 AM)29.98 "Hg (Jul 13, 7:50 AM)
Low66 °F (Jul 12, 4:20 AM)38% (Jul 21, 5:50 PM)29.68 "Hg (Jul 11, 9:20 AM)
Average78 °F70%29.84 "Hg
* Reported Jul 11 9:20 AM — Jul 26 9:20 AM, Corfu, Weather by CustomWeather, © 2014

Note: Actual official high and low records may vary slightly from our data, if they occured in-between our weather recording intervals... More about our weather records

Advertising

Corfu weather history for previous 24 hours

 ConditionsComfort  
Time TempWeatherWind HumidityBarometerVisibility
9:20 AM
Jul 26
79 °FSunny.2 mph79%29.86 "Hg10 mi
8:50 AM75 °FSunny.2 mph83%29.86 "Hg10 mi
8:20 AM73 °FSunny.No wind83%29.86 "Hg10 mi
7:50 AM72 °FSunny.2 mph88%29.86 "Hg10 mi
7:20 AM72 °FClear.2 mph88%29.86 "Hg10 mi
6:50 AM72 °FClear.3 mph83%29.86 "Hg10 mi
6:20 AM72 °FClear.No wind88%29.86 "Hg10 mi
5:50 AM72 °FClear.No wind88%29.86 "Hg10 mi
5:20 AM72 °FClear.No wind88%29.86 "Hg10 mi
4:50 AM72 °FClear.No wind88%29.86 "Hg10 mi
4:20 AM72 °FClear.No wind88%29.86 "Hg10 mi
3:50 AM72 °FClear.No wind88%29.86 "Hg10 mi
3:20 AM72 °FClear.No wind83%29.86 "Hg10 mi
2:50 AM72 °FClear.No wind83%29.86 "Hg10 mi
2:20 AM73 °FClear.No wind78%29.86 "Hg10 mi
1:50 AM73 °FClear.No wind78%29.86 "Hg10 mi
1:20 AM73 °FClear.No wind78%29.86 "Hg10 mi
12:50 AM73 °FClear.No wind78%29.86 "Hg10 mi
12:20 AM75 °FClear.No wind74%29.86 "Hg10 mi
11:50 PM
Jul 25
75 °FClear.3 mph74%29.86 "Hg10 mi
11:20 PM77 °FClear.No wind69%29.86 "Hg10 mi
10:50 PM77 °FClear.No wind69%29.86 "Hg10 mi
10:20 PM79 °FClear.3 mph65%29.83 "Hg10 mi
9:50 PM79 °FSunny.3 mph65%29.83 "Hg10 mi
9:20 PM81 °FSunny.5 mph58%29.83 "Hg10 mi
8:50 PM82 °FSunny.6 mph55%29.83 "Hg10 mi
8:20 PM84 °FPassing clouds.7 mph55%29.83 "HgN/A
7:50 PM86 °FPassing clouds.12 mph52%29.83 "HgN/A
7:20 PM88 °FPassing clouds.12 mph43%29.83 "HgN/A
6:50 PM88 °FPassing clouds.10 mph43%29.83 "HgN/A
6:20 PM86 °FPassing clouds.10 mph52%29.83 "HgN/A
5:50 PM86 °FPassing clouds.9 mph52%29.83 "HgN/A
5:20 PM90 °FPassing clouds.12 mph43%29.83 "HgN/A
4:50 PM90 °FPassing clouds.10 mph43%29.83 "HgN/A
4:20 PM88 °FPassing clouds.13 mph49%29.83 "HgN/A
3:50 PM88 °FPassing clouds.8 mph49%29.83 "HgN/A
3:20 PM88 °FPassing clouds.6 mph49%29.83 "HgN/A
2:50 PM88 °FPassing clouds.6 mph49%29.83 "HgN/A
2:20 PM88 °FPassing clouds.13 mph52%29.83 "HgN/A
1:50 PM88 °FPassing clouds.13 mph52%29.83 "HgN/A
1:20 PM86 °FPassing clouds.6 mph55%29.83 "HgN/A
12:50 PM86 °FPassing clouds.8 mph55%29.83 "HgN/A
12:20 PM82 °FPassing clouds.6 mph66%29.83 "HgN/A
11:50 AM82 °FPassing clouds.5 mph66%29.83 "HgN/A
11:20 AM81 °FPassing clouds.5 mph70%29.83 "HgN/A
10:50 AM81 °FPassing clouds.3 mph70%29.83 "HgN/A
Weather by CustomWeather, © 2014

See weather overviewHow to use our weather pages